Reflectivity
-20 -20 -20 -20 -20 -20 -20 -20 -20 -20 -20 -20 -20 -20 -20 -20 -20 -20 -20 -20 -20 -20 -20 -20 -20 -20 -20 -20 -20 -20 -20 -20 -20 -20 -20 -20 -20 10
-20 -20 -20 -20 -20 -20 -20 -20 -20 -20 -20 -20 -20 -20 -20 -20 -20 -20 -20 -20 -20 -20 -20 -20 -20 -20 -20 -20 -20 -20 -20 -9 -4 -20 -20 -20 -20 -20
-20 -20 -20 -20 -20 -20 -20 -20 -20 -20 -20 -20 -20 -20 -20 -20 -20 -20 -20 -20 -20 -20 -20 -20 -20 -20 -20 -20 -20 -20 -20 -20 -20 -20 -20 -16 -20 -20
-20 -20 -20 -20 -20 -20 -20 -20 -20 -20 -20 -20 -20 -20 -20 -20 -20 -20 -20 -20 -20 -20 -20 -20 -20 -20 -20 -20 -20 -20 -20 -20 -20 -20 -20 -20 -20 4
-20 -20 -20 -20 -20 -20 -20 -20 -20 -20 -20 -20 -20 -20 -20 -20 -20 -20 -20 -20 -20 -20 -20 -20 -20 -12 -20 -20 -20 -20 -20 -20 -20 -20 -20 -20 -20 -20
-20 -20 -20 -20 -20 -20 -20 -20 -20 -20 -20 -20 -20 -20 -15 -20 -20 -20 -20 -20 -20 -20 -20 -20 -20 -20 -20 -20 -20 -20 -20 -20 -20 -20 -20 -20 -12 -20
-20 -20 -20 -20 -20 -20 -20 -17 -10 -5 -20 -20 -20 -20 -20 -20 -20 -20 -20 -20 -20 -20 -20 -20 -20 -20 -20 -20 -20 -20 -20 -20 -20 -20 -20 -20 -20 7
-20 -20 -20 -20 -20 -20 -20 -3 4 6 5 3 -20 -20 -20 -20 -20 -20 -20 -20 -20 -20 -20 -20 -20 -20 -20 -20 -20 -20 -20 -20 -20 -20 -20 -20 -20 -20
-20 -20 -20 -20 -20 -20 -20 2 -1 -7 6 3 8 1 -19 -20 -20 -20 -20 2 -8 -20 1 -20 -20 -20 -20 -20 -20 -20 -20 -20 -20 -15 -20 -20 -20 -20
-20 -20 -20 -20 -20 -8 -10 -19 -20 -20 -20 -20 -19 -20 -20 -20 18 2 -20 -20 -10 -20 -3 8 4 10 -20 -20 -20 -20 -20 -20 -20 7 10 -8 -11 6
-20 -20 -20 -20 -20 0 6 7 2 9 -11 -20 -15 4 9 11 14 13 29 16 -18 -20 -20 9 -20 -20 -20 -20 -20 -20 -20 -20 -20 -20 -20 -20 -20 -20
-20 -20 -20 -3 4 9 12 -20 -20 -20 -19 3 11 2 -3 -20 -20 -11 3 12 17 -13 -20 14 -20 -20 -20 -20 -20 -20 -20 16 13 -20 -20 -20 -20 -20
-20 -20 -20 -20 16 -6 -3 -16 -19 9 -17 -20 -20 -20 -5 -20 -20 -20 -20 7 8 -3 -20 16 3 -20 -20 -20 -20 -20 -20 -20 -16 -20 -20 -20 -20 -20
-15 -20 -20 11 -20 -3 -7 1 3 2 -20 -20 -20 -6 -5 -7 3 -14 -20 -20 -12 -13 -20 11 24 -15 -20 -20 -20 -20 -20 -20 -20 -20 -20 -20 -20 -20
-7 -15 5 -20 -20 -20 -19 -2 -18 -20 -20 -20 -5 -20 -20 -20 -8 -7 -20 -20 -20 -20 -20 -19 -13 14 -18 -20 -20 -20 -20 -20 -20 -20 -20 -20 -20 -20
-20 -20 -20 -20 -20 -20 -20 -20 -20 -19 2 4 0 -19 -20 -20 -20 -2 -9 -20 -15 -20 -20 -20 -20 -20 -20 -20 -20 -20 -20 -20 -20 -20 -20 -20 -20 -20
-18 -20 -20 -20 -20 -20 -20 -20 -20 -20 3 -8 -20 -16 -17 -20 -20 -20 -3 -1 -14 -20 -20 -20 -16 -11 -20 -20 -20 -20 -20 -15 -20 -20 7 -20 -20 -20
-19 -20 -20 -20 -8 -20 -8 -4 -20 1 -0 -19 -20 -2 -0 -19 -20 -20 -20 6 -20 -20 -20 -20 -19 12 -10 -20 -1 -3 -0 -4 -20 -20 -20 -20 -20 -20
-20 -8 -8 -6 -7 2 -1 4 6 -2 3 -20 3 -12 2 -20 -19 -20 -20 -6 -20 -20 -20 -20 -20 7 12 -20 -20 -20 -20 -20 -20 -20 -20 -20 -20 -20
-20 -2 -2 -3 1 3 3 2 -3 -12 -20 -20 -20 -20 -20 -20 -17 -20 -20 -5 -20 -20 -20 -20 -20 -20 -20 -20 -20 -20 -20 -20 -20 -20 -20 -20 -20 -20
-17 -9 -10 -1 -10 2 -1 -10 -20 -14 -3 -20 -20 -20 -20 -9 -13 -20 -20 6 8 -8 -9 -20 -20 3 -8 11 3 -20 -20 -20 -20 -20 -20 -20 -20 -20
-20 -14 -1 -0 -16 -17 -20 -20 -20 -20 -20 -20 -19 -20 -20 -20 -11 -15 -20 -20 -19 -6 4 -20 -20 -10 -20 -19 -20 -20 -20 -20 -20 -20 -20 -20 -20 -20
-20 -20 -20 -20 -20 -20 -20 -20 -20 -20 -20 -19 -12 -20 -20 -13 -20 -20 -20 -20 -20 -20 -20 -20 -20 1 -7 -20 -4 -20 -20 -20 -20 -20 -20 -20 -20 -20
Wind_Speed
5 5 4 4 4 4 4 4 6 10 9 6 5 6 5 5 9 9 9 18 25 27 26 22 21 21 23 23 22 22 22 22 23 23 24 23 22 24
3 5 5 3 5 4 4 5 6 8 10 7 8 5 6 8 11 10 10 18 23 26 27 24 22 22 22 22 22 23 22 20 21 22 24 25 23 24
5 5 6 5 4 4 4 5 6 6 10 11 8 7 6 7 9 9 8 11 11 22 24 23 23 23 22 22 22 20 20 21 22 23 24 23 24 24
6 6 6 6 6 5 5 8 7 8 8 15 12 8 7 6 8 8 9 10 11 18 25 27 26 24 21 22 21 21 20 21 18 22 24 23 23 23
6 6 7 6 7 7 7 8 7 8 9 10 14 8 8 5 8 8 8 9 9 19 23 25 24 22 20 22 22 21 21 18 20 21 22 21 21 21
6 6 7 7 9 9 8 9 9 8 9 10 11 11 8 6 5 7 9 6 8 9 16 20 24 21 20 22 22 19 17 18 20 20 20 17 17 14
6 6 7 9 18 17 10 10 10 9 9 10 11 11 9 6 7 6 9 9 10 8 9 10 9 6 8 13 14 16 19 20 19 19 19 19 17 18
6 6 6 12 12 20 23 24 20 13 13 11 11 12 13 9 8 8 8 8 14 6 4 8 2 7 6 4 16 20 21 21 20 20 17 17 18 18
6 6 7 8 15 11 17 21 18 21 22 16 15 13 15 12 11 10 10 10 12 11 10 12 5 9 5 8 20 22 22 21 19 17 14 16 18 18
6 7 7 10 10 15 13 12 12 11 13 10 13 14 13 13 13 12 13 13 11 10 8 10 6 9 7 6 18 22 22 20 18 11 9 10 11 12
6 6 9 10 16 23 14 13 14 12 15 22 27 28 27 27 23 12 9 7 10 9 3 6 8 7 4 7 9 20 20 18 12 7 7 9 12 13
6 7 15 16 23 23 14 12 12 12 13 11 9 12 17 15 23 14 8 10 7 10 6 4 3 3 4 4 3 4 4 7 6 6 6 10 11 4
6 7 7 20 22 23 23 9 12 16 13 9 10 9 9 9 8 8 9 9 8 11 8 4 3 2 3 4 3 3 4 3 2 4 6 7 9 8
8 7 8 18 21 20 16 21 22 17 8 8 8 9 8 8 9 8 9 9 9 12 10 9 5 4 3 3 5 3 4 4 4 2 2 5 6 8
7 13 19 19 18 13 18 21 19 8 8 8 8 9 8 9 10 9 9 9 10 10 9 10 8 6 6 6 4 3 3 3 3 3 2 3 2 1
10 6 12 14 14 14 11 10 7 7 9 8 8 9 9 8 8 7 6 8 6 9 6 8 9 8 8 7 7 8 3 3 1 2 3 2 3 3
8 3 5 6 7 7 7 7 7 8 9 9 8 8 9 9 9 8 8 7 7 8 7 3 5 6 6 5 6 7 7 6 6 6 2 3 4 4
6 5 6 7 7 8 9 8 8 11 9 9 9 9 9 9 9 8 8 7 7 7 5 4 3 3 2 5 12 7 4 5 4 4 3 3 4 4
4 6 7 7 8 8 8 9 9 10 10 9 9 10 10 9 12 9 8 8 7 8 7 4 2 4 5 8 3 12 7 7 2 2 4 5 3 6
5 6 7 8 8 8 8 9 9 10 9 8 10 10 10 11 9 9 8 8 9 8 5 3 3 5 7 7 4 4 14 6 4 4 3 2 4 11
7 7 6 7 8 8 8 9 11 10 11 10 9 10 10 9 10 9 9 16 15 7 7 5 6 12 6 3 1 4 3 15 10 6 3 2 2 2
7 7 7 8 8 8 9 9 11 11 11 10 10 9 10 10 10 10 9 9 8 8 8 6 5 2 3 4 8 8 3 2 9 18 15 12 5 3
9 7 8 8 8 8 8 9 10 11 11 11 8 11 11 11 10 10 10 9 8 7 7 7 2 3 3 4 8 5 4 3 2 2 4 14 19 21
Wind_Direction
291 287 279 276 276 272 274 273 287 304 297 293 287 288 283 283 275 284 284 293 299 299 295 296 301 302 302 302 303 305 306 306 303 302 301 296 296 296
292 298 293 279 287 289 285 285 282 286 294 304 291 280 274 289 291 297 299 299 300 300 293 290 295 298 298 301 301 301 304 316 313 306 299 294 294 295
303 286 287 288 279 286 280 279 282 286 289 295 288 284 276 269 280 281 285 291 291 293 294 288 292 293 294 300 300 300 300 307 307 300 301 302 295 288
291 291 283 294 285 269 265 277 282 286 286 292 294 294 277 269 270 277 284 286 290 293 294 293 285 284 289 297 300 299 299 303 307 306 297 291 294 293
278 280 280 279 285 281 276 282 282 280 282 282 291 292 285 266 278 277 272 281 279 289 295 293 287 280 285 291 292 295 298 293 301 302 298 291 289 290
276 273 272 272 276 281 280 278 279 280 282 282 285 291 285 280 254 279 289 276 284 288 286 285 282 279 282 287 288 291 288 291 294 295 297 299 286 286
277 274 275 272 293 301 300 294 292 292 291 286 285 289 290 282 274 277 279 287 286 283 280 274 272 266 266 277 276 279 284 285 282 292 290 293 294 293
288 288 282 294 293 304 306 301 297 294 291 290 289 284 284 284 277 276 279 288 296 277 279 283 288 269 260 253 268 279 280 283 282 285 284 290 292 286
296 294 297 301 308 294 293 297 301 296 293 296 290 288 286 282 282 278 270 273 279 283 285 280 264 262 263 265 275 279 281 280 282 281 288 293 283 280
291 288 282 295 289 299 298 295 285 276 274 269 270 275 271 276 270 267 267 269 268 273 266 272 259 263 267 262 272 278 277 276 275 270 283 304 317 310
283 282 287 290 292 303 312 309 307 296 288 288 282 282 284 286 286 286 273 269 275 273 226 246 260 261 251 269 267 268 270 270 256 248 283 312 319 315
279 268 290 302 310 315 319 317 311 305 308 301 301 288 281 275 282 276 280 276 277 281 262 237 246 216 294 249 266 272 279 246 227 250 285 315 317 311
305 300 294 307 317 322 322 319 299 311 325 317 304 300 291 283 273 267 261 253 260 269 263 258 217 218 223 278 268 267 223 256 247 269 309 317 317 304
311 305 298 319 328 328 331 314 323 332 312 306 306 308 305 299 299 275 258 255 254 260 270 257 262 207 207 251 252 270 244 231 217 241 264 299 305 321
312 313 329 325 327 323 316 327 328 315 310 304 307 304 302 300 297 288 275 268 262 261 260 251 245 245 239 245 259 233 254 267 222 207 254 238 255 298
312 311 327 329 322 315 317 310 305 305 309 308 300 303 301 301 298 294 283 290 268 281 250 237 234 227 246 249 262 270 233 238 270 237 233 265 278 248
344 319 321 315 316 318 319 317 319 319 320 316 308 304 304 304 298 299 290 287 273 284 283 257 230 224 218 209 251 256 251 238 250 261 191 270 264 252
349 316 310 315 317 322 322 318 317 318 324 318 308 306 305 302 298 293 290 274 278 279 260 261 243 220 324 271 226 257 230 239 225 223 204 223 269 260
325 326 328 324 323 321 321 316 318 318 313 309 307 312 306 295 304 296 290 285 278 280 270 256 237 250 235 253 252 218 239 240 238 281 207 198 210 264
324 323 322 317 317 316 319 315 316 316 309 307 312 306 304 298 294 293 287 281 283 279 268 257 224 233 243 245 222 243 212 210 190 229 252 238 234 260
327 314 313 319 318 314 314 312 317 312 313 309 299 302 303 297 298 292 282 290 291 284 281 262 250 245 246 255 320 266 243 226 213 200 210 181 222 262
316 315 319 313 312 306 310 311 315 313 311 306 302 303 307 303 297 295 289 278 270 271 267 266 265 265 221 210 264 271 265 261 240 239 227 219 174 249
318 311 310 308 306 307 305 304 306 305 305 306 301 318 313 307 304 297 295 280 266 267 262 271 254 220 229 245 261 252 240 260 244 266 263 253 254 252